Погода в Сторожевске

Россия / Республика Коми     61°56′24″N   52°18′56″E
темп.,
°C
ветер,
м/с
пор.,
м/с
влажн.,
%
обл.,
%
осадки,
мм/ч
давл.,
гПа
погр.,
м
19 января, ср
ср1900:00−12юз1199100 0.1 100316
03:00−16юз1110093 0.1 100510
06:00−16юз249991 0.1 100664
09:00−18юз2510098 0.1 100792
12:00−15юз259793 0.0 1008159
15:00−16ююз289961 0.1 1009144
18:00−16ююз3109680 0.0 1009244
21:00−16ююз31295100 0.0 1008285
20 января, чт
чт2000:00−15ю4129472 0.0 1008312
03:00−14ю4149367 0.0 1007360
06:00−13ю4148884 0.0 1006413
09:00−12ю41392100 0.1 1005520
12:00−9ююз51392100 0.3 1005569
15:00−8ююз51393100 0.7 1004675
18:00−7ююз51292100 0.4 1005655
21:00−6ююз41292100 0.6 1006589
21 января, пт
пт2100:00−7ююз41291100 0.1 1008530
03:00−7ююз41291100 0.1 1009528
06:00−7ююз41292100 0.0 1010502
09:00−8ююз41291100 0.1 1013488
12:00−8ююз41389100 0.0 1015517
15:00−9ююз4118898 0.0 1017396
18:00−10ююз4128967 0.0 1019374
21:00−11ююз3119058 0.0 1021320
22 января, сб
сб2200:00−14ююз2695100 0.0 102498
03:00−17ю249960 0.0 102551
06:00−20ю1110073 0.0 102614
09:00−19ю1310058 0.0 102838
12:00−11ююз269434 0.0 1028170
15:00−15ююв119887 0.0 10309
18:00−14ююв139772 0.0 103137
21:00−18ююз119639 0.0 103222
23 января, вс
вс2300:00−19ю119786 0.0 103320
03:00−21ю1110064 0.0 103412
06:00−21ю1110047 0.0 10359
09:00−21ююв1110042 0.0 103614
12:00−12ююз25885 0.0 1036142
15:00−15ююв11975 0.0 10379
18:00−17ю11975 0.0 103720
21:00−16ююз28965 0.0 1037116